Helicity
-13 40 40 39 34 40 50 57 64 77 72 78 97 109 104 152 145 29 50 47 75 146 138 165 183 72 53 67 36 71 112 81 74 90 76 123 79 32 44 43 34 14 52 53 46
-23 34 44 43 41 47 62 69 68 70 77 85 92 110 112 118 -9 52 90 64 68 88 123 159 181 146 80 48 55 89 85 55 9 83 121 82 32 51 72 93 63 59 32 35 36
37 43 46 46 43 50 52 63 73 79 97 106 113 115 108 81 5 69 74 63 70 88 96 112 106 62 66 84 52 53 90 66 35 41 39 47 48 62 107 187 78 106 -21 19 67
48 47 49 50 49 54 68 83 83 83 93 90 96 105 129 32 67 23 71 126 105 179 96 66 126 117 84 98 94 62 60 66 53 35 29 33 2 41 87 127 92 -27 -35 -12 34
50 54 54 57 60 69 76 80 85 86 66 83 106 86 62 74 57 20 32 53 47 103 123 75 103 102 108 97 101 68 131 153 151 123 144 139 64 79 32 90 84 20 -59 -35 -8
47 53 53 58 81 90 88 86 81 55 48 73 129 141 42 68 1 50 53 57 52 71 88 98 78 71 71 89 109 138 124 115 104 113 158 218 154 143 12 70 116 94 -14 -61 -26
42 58 61 73 94 92 93 88 56 20 35 43 64 73 135 47 12 11 28 39 31 34 35 40 49 73 106 93 118 128 104 116 122 119 113 104 103 90 44 33 51 66 60 36 -28
36 43 55 69 78 91 80 66 21 10 17 33 49 22 71 -6 -8 23 43 48 47 41 56 44 49 61 93 69 118 138 155 124 53 40 69 71 108 110 80 73 74 78 77 59 29
43 42 47 81 79 95 101 66 6 15 6 45 55 52 70 25 39 -8 45 27 39 25 22 2 43 42 61 110 214 199 276 308 276 166 197 93 276 143 69 47 58 38 69 86 61
43 45 60 75 91 93 95 22 56 16 35 21 33 33 25 28 6 2 9 -2 18 47 66 52 91 54 44 160 128 173 243 233 252 233 217 285 263 212 148 142 47 33 169 64 72
38 43 68 77 95 116 52 -1 19 45 92 65 60 63 20 -8 13 58 4 34 42 57 70 72 95 105 121 186 144 151 155 145 108 122 143 156 121 168 128 144 101 49 76 179 203
8 40 84 93 140 186 -11 15 29 9 39 28 48 17 13 5 44 93 37 36 29 58 89 115 111 120 81 88 145 129 108 98 105 113 130 159 116 132 140 86 50 63 88 111 122
13 55 83 87 114 27 50 35 -20 -22 27 21 -17 36 -20 26 36 62 54 46 36 85 82 114 99 110 124 140 151 114 69 67 90 77 47 47 60 110 204 197 177 102 96 93 108
44 93 91 90 15 -18 1 -3 -14 0 46 42 16 25 20 44 43 125 88 76 47 71 74 100 80 88 112 105 49 129 46 48 51 41 9 59 34 6 36 102 82 88 53 76 98
73 103 100 34 8 0 -19 2 -2 12 58 8 55 24 25 57 42 93 77 98 96 106 109 88 67 78 77 70 37 58 45 69 34 -1 -25 -85 31 18 21 36 130 224 120 93 81
101 104 101 39 -1 -3 9 27 14 57 51 62 44 44 41 101 56 91 75 68 146 122 66 68 54 146 113 44 52 72 75 20 6 58 3 -5 34 -21 38 95 220 274 239 60 -10
96 105 60 47 7 23 30 27 49 72 23 64 72 71 43 91 97 87 67 138 125 141 89 41 113 91 80 48 83 60 117 -14 -1 34 2 57 30 44 135 250 214 258 367 181 -44
87 70 33 24 21 52 33 47 101 53 49 62 46 33 52 83 94 72 82 149 194 152 126 99 66 86 12 43 23 10 63 58 5 -36 -13 11 10 55 -47 -12 10 88 60 63 79
94 30 21 34 44 54 60 85 69 50 76 66 28 46 87 129 88 135 123 181 224 221 163 121 145 11 19 26 73 -28 34 52 35 35 -38 -48 7 38 -36 -46 -50 -64 -12 -64 -24
65 51 61 28 56 42 72 82 73 92 70 55 102 83 88 105 110 113 123 166 237 242 207 156 192 92 7 -37 29 101 30 13 50 18 -37 20 -26 -66 -7 -1 -39 -71 -94 -84 -87
53 80 32 36 29 65 93 74 84 91 94 97 108 96 83 75 85 90 113 191 242 209 130 189 248 190 59 46 16 96 46 65 19 45 21 -52 -49 -46 -27 0 -89 -112 -105 -109 -94
78 105 15 43 79 82 106 84 65 76 75 79 84 81 89 93 68 85 106 161 135 141 186 201 263 244 124 60 69 146 115 109 22 20 16 -64 -131 34 41 48 -49 -148 -99 -73 -80
110 62 38 62 102 113 78 91 103 83 61 68 85 75 80 76 73 59 88 63 86 196 194 193 208 201 136 42 46 -19 -36 52 77 42 14 -68 -150 2 22 52 -22 -81 -60 -62 -34
89 102 75 87 57 76 86 82 93 83 120 98 92 94 82 75 56 69 53 103 88 130 130 199 229 268 222 191 136 96 107 120 107 44 -73 -81 -46 17 63 77 -26 -69 -56 -25 -17
86 69 71 95 59 56 77 71 78 98 81 90 93 72 73 97 74 64 70 30 21 54 118 164 196 197 129 87 67 81 112 113 59 -38 -75 -60 -41 -2 34 67 -21 -72 15 6 12
100 94 82 104 104 84 115 96 79 73 84 87 110 103 145 130 118 57 58 90 109 96 127 111 148 83 56 53 78 87 56 103 83 113 138 33 30 59 47 30 7 0 12 13 29
116 84 106 109 109 127 103 101 96 102 164 108 138 135 131 117 104 70 79 103 145 114 92 76 134 150 126 75 35 31 31 51 82 26 -7 -2 9 -4 -10 15 2 -5 -21 -3 35
Wind_Speed
28 38 39 39 37 36 39 39 38 38 39 40 40 41 41 39 36 34 37 41 45 49 51 49 43 41 49 38 43 50 48 64 64 61 63 66 62 56 49 42 40 38 18 9 13
26 30 37 38 38 38 40 40 40 41 42 43 43 43 42 39 31 39 44 46 47 49 48 48 50 49 42 42 41 37 50 52 58 68 69 67 65 60 57 53 49 42 19 15 15
36 35 37 36 36 40 42 43 43 44 44 45 46 45 43 41 33 43 48 48 50 51 47 50 54 49 43 49 46 48 51 55 65 74 76 77 74 65 62 63 57 55 37 41 23
37 41 41 41 41 42 44 46 47 47 46 46 46 44 44 34 35 43 51 53 54 56 49 51 52 48 47 51 49 61 61 55 59 70 77 78 73 76 69 63 63 66 57 45 39
40 42 44 45 47 48 47 48 49 48 46 45 44 43 35 34 37 46 49 51 51 53 53 52 50 53 53 59 66 63 61 72 76 74 72 73 74 75 86 71 66 77 68 60 55
43 45 48 49 51 51 51 50 49 44 42 41 40 39 32 32 38 50 51 48 52 54 54 53 52 58 55 59 63 68 80 82 79 82 80 77 82 79 93 79 78 74 84 76 66
43 44 47 48 45 45 45 44 41 38 37 34 37 35 39 36 42 47 52 50 52 53 53 54 53 52 61 62 57 75 88 90 83 81 86 85 101 97 94 91 95 88 86 87 77
43 45 47 46 44 44 42 39 37 35 34 34 38 34 35 36 41 46 52 56 58 47 44 48 49 47 46 54 65 75 77 90 75 74 73 67 109 92 85 88 94 90 85 92 93
40 44 45 41 41 38 34 32 35 34 34 37 37 34 36 35 47 46 55 56 55 53 43 37 48 51 55 64 74 65 87 91 91 71 74 63 91 81 80 86 90 92 84 81 83
39 42 43 41 40 37 32 32 29 32 29 31 29 35 41 42 41 39 56 56 58 67 58 46 45 66 64 70 83 88 94 92 97 87 90 94 94 94 87 85 80 80 71 73 77
40 42 42 41 38 33 30 31 32 35 39 38 38 38 42 43 34 45 62 61 66 62 66 61 66 70 74 73 72 77 83 93 92 89 91 99 91 98 92 91 87 82 81 81 79
41 42 39 35 32 31 29 31 32 31 35 35 37 39 38 37 49 54 64 63 65 69 71 68 65 67 69 66 69 66 75 84 86 84 85 92 100 96 93 88 87 90 89 89 88
40 38 34 31 31 23 32 31 32 31 33 35 33 39 37 44 44 51 57 59 63 68 74 69 63 67 65 65 62 62 68 77 84 84 81 82 90 90 93 94 91 90 94 98 101
39 36 33 32 25 29 32 34 31 32 33 32 30 36 38 39 42 48 51 54 59 71 68 58 61 56 58 50 51 62 67 71 81 82 86 75 100 86 80 82 78 81 82 84 92
38 35 32 30 31 29 32 34 29 31 37 28 35 34 37 44 40 48 58 53 60 66 68 62 67 62 58 53 57 54 65 61 72 82 81 78 75 88 68 60 61 61 57 58 63
36 33 33 29 28 31 34 32 29 32 35 29 32 36 46 42 50 50 58 56 53 59 61 62 44 47 52 58 49 57 68 77 63 54 59 60 56 60 49 52 57 58 63 58 56
34 34 31 30 25 33 31 29 32 35 27 28 34 39 40 43 47 55 59 62 64 72 78 59 55 40 66 56 54 61 62 57 45 45 45 44 55 40 47 43 54 57 64 62 63
36 36 28 27 29 31 29 28 33 27 30 32 34 37 36 41 45 50 54 55 57 63 66 69 66 59 54 48 48 43 43 43 52 58 70 66 45 32 39 36 47 55 59 71 70
37 26 24 29 29 31 25 30 29 27 30 32 34 38 39 41 44 53 54 51 51 53 63 63 51 46 40 53 39 34 42 45 33 57 61 49 35 36 47 47 51 57 59 68 65
29 26 27 28 31 27 26 27 26 30 30 30 35 37 42 47 50 53 51 44 48 45 46 48 59 46 48 43 36 37 32 33 39 45 52 49 55 44 56 64 65 69 77 77 74
24 22 29 32 29 28 25 27 26 28 33 34 35 35 38 46 46 50 46 46 44 44 43 50 49 50 49 45 34 28 35 34 29 40 47 56 51 50 65 71 71 74 82 81 79
27 24 28 31 29 26 25 26 27 25 30 31 32 33 37 44 44 45 45 46 40 44 52 46 46 56 55 36 42 40 36 39 32 39 64 67 81 61 73 87 80 81 82 78 75
26 26 28 29 26 25 25 27 29 28 26 28 31 32 37 40 44 40 43 38 41 42 44 47 49 67 60 43 35 33 35 30 26 21 47 77 78 82 93 87 78 77 79 77 74
27 25 29 29 28 25 22 24 27 29 32 30 31 35 37 36 35 40 45 40 48 45 38 34 42 44 51 39 35 32 25 28 24 26 78 83 85 83 83 85 67 67 70 69 70
27 28 26 28 26 25 27 26 22 28 27 29 32 26 30 38 45 41 41 44 44 40 40 37 45 42 35 30 30 27 26 27 25 34 45 84 90 87 80 65 63 64 65 62 68
26 26 28 30 23 20 26 28 28 26 23 28 27 31 39 41 40 47 48 47 42 43 41 37 43 46 37 33 31 29 26 17 12 45 48 75 80 53 49 58 65 63 61 59 62
32 29 29 32 26 23 24 23 25 26 31 29 35 38 40 40 44 42 37 33 29 31 32 32 40 43 42 45 43 41 35 36 38 64 57 52 49 53 53 50 55 56 56 57 60
Wind_Direction
68 352 350 338 319 306 321 318 315 306 304 297 295 296 300 299 294 336 329 311 305 291 295 291 316 309 288 307 295 288 289 279 278 280 282 282 292 296 308 304 297 308 327 308 324
84 309 339 322 313 307 313 314 313 311 305 304 305 302 299 298 339 346 329 313 302 310 318 315 305 310 312 307 304 299 291 290 284 280 282 285 292 294 296 295 284 295 336 328 324
345 318 319 309 301 304 314 314 312 313 310 308 310 306 303 302 338 331 328 326 318 319 332 322 309 312 310 306 305 299 290 293 286 279 282 284 284 291 294 284 279 279 305 306 300
329 340 321 309 304 303 308 319 320 316 315 312 313 312 311 342 329 337 326 322 322 316 334 328 320 318 314 306 309 299 295 294 293 290 287 285 286 284 285 287 283 277 287 303 292
332 321 324 314 311 317 317 320 321 323 327 323 317 323 344 354 346 340 337 332 335 332 328 333 330 322 312 307 304 298 301 295 293 293 294 292 286 284 273 283 289 274 279 283 289
332 327 326 323 316 321 324 327 328 336 340 333 329 316 3 353 2 337 340 350 345 343 335 337 330 322 314 310 304 301 297 294 293 290 293 292 286 284 270 280 282 280 271 274 280
335 329 319 315 297 298 302 308 331 354 341 331 334 357 9 360 350 358 348 356 350 346 343 339 335 331 321 314 313 305 297 293 290 291 288 291 280 275 277 279 275 275 271 270 273
337 342 332 312 304 305 311 322 353 2 358 357 353 26 22 30 13 8 2 349 345 1 357 353 349 339 333 325 316 307 301 294 297 296 292 286 276 280 282 278 274 274 274 268 268
326 338 326 301 303 300 301 318 7 5 14 341 16 30 20 31 2 3 1 357 358 356 353 354 350 343 337 324 315 314 300 298 296 300 298 295 282 287 286 281 274 276 272 271 268
324 329 317 309 304 305 291 65 94 38 57 58 66 27 11 10 24 28 3 360 356 348 357 358 351 336 332 329 314 310 303 300 295 299 294 288 286 285 286 286 285 284 284 272 265
335 329 317 310 302 287 284 359 8 8 5 20 17 33 18 18 39 25 0 359 357 1 355 354 341 337 332 333 325 318 310 302 298 298 295 286 288 282 285 283 281 283 281 277 276
349 333 312 295 280 287 21 8 11 34 31 45 52 43 40 39 10 9 8 9 6 0 357 354 350 347 340 336 329 325 316 307 304 301 298 293 286 284 282 283 283 279 279 278 276
342 316 295 275 268 348 8 357 350 343 36 29 35 29 35 24 25 15 17 14 8 4 359 354 353 352 349 345 338 329 320 314 308 307 300 299 289 284 282 285 285 283 279 276 272
323 293 283 272 325 20 12 344 2 2 17 27 37 25 25 22 20 28 23 19 11 1 3 6 1 358 352 348 339 323 324 315 310 306 295 303 286 286 287 287 295 291 291 288 281
308 291 284 314 332 13 355 338 19 13 354 24 15 33 28 22 24 20 17 17 9 9 6 0 358 0 359 357 341 336 333 326 313 301 300 293 293 278 290 290 297 309 309 306 299
301 295 300 336 20 356 338 333 19 9 357 13 18 15 9 19 12 12 12 18 21 12 12 3 8 23 15 1 353 339 330 320 318 315 298 304 306 297 296 295 299 309 311 314 308
296 288 313 333 10 342 349 15 1 354 19 14 7 6 9 9 11 9 10 13 12 5 5 14 15 29 15 6 357 347 339 335 331 331 314 324 312 309 319 311 310 306 307 315 313
289 290 321 5 347 342 6 11 359 11 5 4 6 3 6 10 10 10 8 9 18 15 9 8 6 12 6 10 4 357 353 347 325 310 290 292 305 305 332 335 339 316 315 316 308
292 333 358 352 345 350 19 4 9 14 10 6 4 2 6 9 10 5 5 12 15 22 14 10 11 2 11 6 8 3 350 337 332 309 293 292 269 290 318 332 325 328 328 324 315
313 326 347 349 345 1 2 4 7 8 14 14 3 5 358 359 1 5 8 16 17 28 26 16 1 14 10 2 4 4 359 353 345 318 298 287 279 280 319 330 324 332 332 330 325
321 333 336 330 350 353 353 356 6 9 2 2 3 3 2 360 2 2 9 15 24 19 19 11 11 6 11 9 356 351 4 356 346 327 308 293 285 278 304 315 317 326 326 325 327
318 331 337 331 339 352 353 354 360 6 4 5 6 5 2 360 1 5 8 13 25 20 11 20 11 5 1 5 28 18 5 355 345 323 294 285 273 288 300 310 311 317 322 324 324
323 328 336 337 339 342 351 352 349 354 357 2 2 7 4 0 360 7 7 14 14 15 14 15 13 1 11 29 13 2 350 348 336 325 307 276 258 289 296 303 311 312 319 319 322
319 322 327 332 336 342 348 348 347 347 347 355 355 357 357 358 2 1 358 8 7 10 13 16 9 6 360 358 4 355 342 336 324 315 264 256 264 281 293 302 312 317 320 323 329
319 317 326 326 324 333 340 345 344 345 347 349 350 355 355 352 349 350 358 358 359 4 11 13 1 6 4 360 356 341 330 323 303 250 245 266 272 278 295 311 321 320 321 325 327
320 323 322 326 340 333 338 337 335 341 349 344 345 347 347 345 348 346 352 357 2 8 15 22 12 8 357 2 360 354 350 327 350 249 244 269 280 318 323 320 317 320 317 320 326
318 326 323 319 328 327 331 342 343 340 345 341 337 338 339 342 345 347 349 348 347 351 359 3 9 13 12 11 9 22 28 27 19 321 309 310 316 316 314 321 328 327 320 318 318